Wetterdaten: Dienstag, 28.10.2014
Datum Zeit Temp. A. Feuchte A. Luftdruck Regen Wind Richtung Richtung Sonnenschein ET UV Solar Taupunkt Windchill Windben Empfang
28.10.2014 00:00 5,1 C 80 % 1024,6 hPa 0,0 l/m 7,2 km/h (2 Bft) SO 142 0 min 0,000 mm 0,0 UV-I 0 W/m 1,9 C 4,4 C 11,9 km/h (2 Bft) 0,00 %
28.10.2014 00:15 5,0 C 80 % 1024,4 hPa 0,0 l/m 1,8 km/h (1 Bft) O-SO 116 0 min 0,000 mm 0,0 UV-I 0 W/m 1,8 C 5,0 C 4,0 km/h (1 Bft) 0,00 %
28.10.2014 00:30 4,9 C 80 % 1024,2 hPa 0,0 l/m 5,4 km/h (1 Bft) SO 137 0 min 0,000 mm 0,0 UV-I 0 W/m 1,7 C 4,9 C 11,9 km/h (2 Bft) 0,00 %
28.10.2014 00:45 4,7 C 80 % 1024,0 hPa 0,0 l/m 11,5 km/h (2 Bft) SO 131 0 min 0,000 mm 0,0 UV-I 0 W/m 1,6 C 0,7 C 15,8 km/h (3 Bft) 0,00 %
28.10.2014 01:00 4,7 C 80 % 1024,1 hPa 0,0 l/m 0,7 km/h (0 Bft) O 96 0 min 0,000 mm 0,0 UV-I 0 W/m 1,6 C 4,7 C 4,0 km/h (1 Bft) 0,00 %
28.10.2014 01:15 4,5 C 81 % 1024,0 hPa 0,0 l/m 10,8 km/h (2 Bft) O-SO 118 0 min 0,000 mm 0,0 UV-I 0 W/m 1,5 C 1,0 C 15,8 km/h (3 Bft) 0,00 %
28.10.2014 01:30 4,5 C 81 % 1023,8 hPa 0,0 l/m 9,4 km/h (2 Bft) O 80 0 min 0,000 mm 0,0 UV-I 0 W/m 1,5 C 2,0 C 15,8 km/h (3 Bft) 0,00 %
28.10.2014 01:45 4,4 C 81 % 1023,8 hPa 0,0 l/m 6,5 km/h (2 Bft) SO 137 0 min 0,000 mm 0,0 UV-I 0 W/m 1,4 C 4,3 C 7,9 km/h (2 Bft) 0,00 %
28.10.2014 02:00 4,3 C 82 % 1023,9 hPa 0,0 l/m 4,0 km/h (1 Bft) O 87 0 min 0,000 mm 0,0 UV-I 0 W/m 1,5 C 4,3 C 7,9 km/h (2 Bft) 0,00 %
28.10.2014 02:15 4,1 C 81 % 1023,9 hPa 0,0 l/m 4,7 km/h (1 Bft) S 174 0 min 0,000 mm 0,0 UV-I 0 W/m 1,1 C 4,1 C 7,9 km/h (2 Bft) 0,00 %
28.10.2014 02:30 4,0 C 81 % 1023,6 hPa 0,0 l/m 6,8 km/h (2 Bft) O 93 0 min 0,000 mm 0,0 UV-I 0 W/m 1,0 C 3,6 C 11,9 km/h (2 Bft) 0,00 %
28.10.2014 02:45 3,9 C 81 % 1023,4 hPa 0,0 l/m 7,2 km/h (2 Bft) O-SO 113 0 min 0,000 mm 0,0 UV-I 0 W/m 0,9 C 3,2 C 11,9 km/h (2 Bft) 0,00 %
28.10.2014 03:00 3,8 C 81 % 1023,4 hPa 0,0 l/m 5,8 km/h (2 Bft) SO 131 0 min 0,000 mm 0,0 UV-I 0 W/m 0,8 C 3,8 C 11,9 km/h (2 Bft) 0,00 %
28.10.2014 03:15 3,7 C 81 % 1023,4 hPa 0,0 l/m 0,0 km/h (0 Bft) O-NO 73 0 min 0,000 mm 0,0 UV-I 0 W/m 0,7 C 3,7 C 0,0 km/h (0 Bft) 0,00 %
28.10.2014 03:30 3,7 C 81 % 1023,2 hPa 0,0 l/m 5,4 km/h (1 Bft) O 100 0 min 0,000 mm 0,0 UV-I 0 W/m 0,7 C 3,7 C 7,9 km/h (2 Bft) 0,00 %
28.10.2014 03:45 3,6 C 81 % 1023,1 hPa 0,0 l/m 4,3 km/h (1 Bft) O-SO 103 0 min 0,000 mm 0,0 UV-I 0 W/m 0,7 C 3,6 C 7,9 km/h (2 Bft) 0,00 %
28.10.2014 04:00 3,5 C 82 % 1023,3 hPa 0,0 l/m 6,8 km/h (2 Bft) O-SO 114 0 min 0,000 mm 0,0 UV-I 0 W/m 0,7 C 3,1 C 11,9 km/h (2 Bft) 0,00 %
28.10.2014 04:15 3,5 C 81 % 1023,2 hPa 0,0 l/m 0,4 km/h (0 Bft) N 354 0 min 0,000 mm 0,0 UV-I 0 W/m 0,6 C 3,5 C 4,0 km/h (1 Bft) 0,00 %
28.10.2014 04:30 3,4 C 82 % 1023,3 hPa 0,0 l/m 4,7 km/h (1 Bft) O-SO 119 0 min 0,000 mm 0,0 UV-I 0 W/m 0,6 C 3,4 C 7,9 km/h (2 Bft) 0,00 %
28.10.2014 04:45 3,4 C 82 % 1023,3 hPa 0,0 l/m 1,8 km/h (1 Bft) S-SO 148 0 min 0,000 mm 0,0 UV-I 0 W/m 0,6 C 3,4 C 4,0 km/h (1 Bft) 0,00 %
28.10.2014 05:00 3,3 C 83 % 1023,0 hPa 0,0 l/m 0,7 km/h (0 Bft) SO 136 0 min 0,000 mm 0,0 UV-I 0 W/m 0,7 C 3,3 C 4,0 km/h (1 Bft) 0,00 %
28.10.2014 05:15 3,3 C 83 % 1023,1 hPa 0,0 l/m 5,4 km/h (1 Bft) S 172 0 min 0,000 mm 0,0 UV-I 0 W/m 0,7 C 3,3 C 7,9 km/h (2 Bft) 0,00 %
28.10.2014 05:30 3,1 C 83 % 1023,0 hPa 0,0 l/m 4,7 km/h (1 Bft) O 99 0 min 0,000 mm 0,0 UV-I 0 W/m 0,5 C 3,1 C 7,9 km/h (2 Bft) 0,00 %
28.10.2014 05:45 3,1 C 83 % 1023,0 hPa 0,0 l/m 4,3 km/h (1 Bft) O-SO 117 0 min 0,000 mm 0,0 UV-I 0 W/m 0,5 C 3,1 C 7,9 km/h (2 Bft) 0,00 %
28.10.2014 06:00 3,2 C 83 % 1023,1 hPa 0,0 l/m 4,7 km/h (1 Bft) O-SO 107 0 min 0,000 mm 0,0 UV-I 0 W/m 0,6 C 3,2 C 7,9 km/h (2 Bft) 0,00 %
28.10.2014 06:15 3,1 C 83 % 1023,0 hPa 0,0 l/m 6,8 km/h (2 Bft) O-SO 111 0 min 0,000 mm 0,0 UV-I 0 W/m 0,5 C 2,7 C 7,9 km/h (2 Bft) 0,00 %
28.10.2014 06:30 3,0 C 83 % 1022,9 hPa 0,0 l/m 4,0 km/h (1 Bft) O-SO 120 0 min 0,000 mm 0,0 UV-I 0 W/m 0,4 C 3,0 C 4,0 km/h (1 Bft) 0,00 %
28.10.2014 06:45 2,9 C 82 % 1022,9 hPa 0,0 l/m 6,5 km/h (2 Bft) O 86 0 min 0,000 mm 0,0 UV-I 0 W/m 0,1 C 2,8 C 11,9 km/h (2 Bft) 0,00 %
28.10.2014 07:00 2,9 C 82 % 1023,1 hPa 0,0 l/m 5,8 km/h (2 Bft) O 92 0 min 0,000 mm 0,0 UV-I 0 W/m 0,1 C 2,9 C 7,9 km/h (2 Bft) 0,00 %
28.10.2014 07:15 3,1 C 82 % 1023,1 hPa 0,0 l/m 0,7 km/h (0 Bft) O-SO 111 0 min 0,000 mm 0,0 UV-I 0 W/m 0,3 C 3,1 C 4,0 km/h (1 Bft) 0,00 %
28.10.2014 07:30 3,1 C 82 % 1022,9 hPa 0,0 l/m 1,8 km/h (1 Bft) O-NO 66 0 min 0,000 mm 0,0 UV-I 30 W/m 0,3 C 3,1 C 4,0 km/h (1 Bft) 0,00 %
28.10.2014 07:45 3,1 C 81 % 1023,0 hPa 0,0 l/m 6,5 km/h (2 Bft) O 97 0 min 0,000 mm 0,0 UV-I 80 W/m 0,2 C 3,0 C 7,9 km/h (2 Bft) 0,00 %
28.10.2014 08:00 3,2 C 81 % 1023,1 hPa 0,0 l/m 0,7 km/h (0 Bft) O 98 15 min 0,000 mm 0,0 UV-I 95 W/m 0,3 C 3,2 C 4,0 km/h (1 Bft) 0,00 %
28.10.2014 08:15 3,4 C 79 % 1023,0 hPa 0,0 l/m 5,4 km/h (1 Bft) O 84 15 min 0,000 mm 1,0 UV-I 162 W/m 0,1 C 3,4 C 7,9 km/h (2 Bft) 0,00 %
28.10.2014 08:30 3,5 C 79 % 1022,7 hPa 0,0 l/m 0,7 km/h (0 Bft) O-NO 68 15 min 0,000 mm 1,0 UV-I 180 W/m 0,2 C 3,5 C 4,0 km/h (1 Bft) 0,00 %
28.10.2014 08:45 3,6 C 79 % 1022,7 hPa 0,0 l/m 0,0 km/h (0 Bft) W-SW 242 15 min 0,000 mm 1,0 UV-I 153 W/m 0,3 C 3,6 C 0,0 km/h (0 Bft) 0,00 %
28.10.2014 09:00 3,7 C 79 % 1022,7 hPa 0,0 l/m 0,4 km/h (0 Bft) O-NO 74 15 min 0,000 mm 1,0 UV-I 182 W/m 0,4 C 3,7 C 4,0 km/h (1 Bft) 0,00 %
28.10.2014 09:15 3,8 C 78 % 1022,7 hPa 0,0 l/m 4,3 km/h (1 Bft) O-SO 104 15 min 0,000 mm 1,0 UV-I 233 W/m 0,3 C 3,8 C 7,9 km/h (2 Bft) 0,00 %
28.10.2014 09:30 3,9 C 77 % 1022,7 hPa 0,0 l/m 2,9 km/h (1 Bft) O-SO 113 15 min 0,000 mm 1,0 UV-I 464 W/m 0,2 C 3,9 C 4,0 km/h (1 Bft) 0,00 %
28.10.2014 09:45 4,2 C 76 % 1022,6 hPa 0,0 l/m 2,2 km/h (1 Bft) S 176 15 min 0,000 mm 2,0 UV-I 627 W/m 0,4 C 4,2 C 7,9 km/h (2 Bft) 0,00 %
28.10.2014 10:00 4,1 C 75 % 1022,4 hPa 0,0 l/m 6,8 km/h (2 Bft) O-SO 112 15 min 0,000 mm 2,0 UV-I 605 W/m 0,1 C 3,7 C 7,9 km/h (2 Bft) 0,00 %
28.10.2014 10:15 4,7 C 74 % 1022,3 hPa 0,0 l/m 0,4 km/h (0 Bft) O-NO 68 15 min 0,000 mm 2,0 UV-I 721 W/m 0,5 C 4,7 C 4,0 km/h (1 Bft) 0,00 %
28.10.2014 10:30 4,9 C 74 % 1022,3 hPa 0,0 l/m 6,5 km/h (2 Bft) O 93 15 min 0,000 mm 2,0 UV-I 691 W/m 0,7 C 4,8 C 7,9 km/h (2 Bft) 0,00 %
28.10.2014 10:45 4,9 C 73 % 1022,2 hPa 0,0 l/m 0,0 km/h (0 Bft) NO 55 15 min 0,000 mm 2,0 UV-I 672 W/m 0,5 C 4,9 C 0,0 km/h (0 Bft) 0,00 %
28.10.2014 11:00 4,7 C 74 % 1022,0 hPa 0,0 l/m 0,7 km/h (0 Bft) O 90 15 min 0,000 mm 2,0 UV-I 746 W/m 0,5 C 4,7 C 4,0 km/h (1 Bft) 0,00 %
28.10.2014 11:15 5,0 C 74 % 1022,0 hPa 0,0 l/m 0,0 km/h (0 Bft) W-SW 256 15 min 0,000 mm 2,0 UV-I 828 W/m 0,8 C 5,0 C 0,0 km/h (0 Bft) 0,00 %
28.10.2014 11:30 5,7 C 72 % 1020,5 hPa 0,0 l/m 0,0 km/h (0 Bft) O-SO 104 15 min 0,000 mm 2,0 UV-I 799 W/m 1,1 C 5,7 C 0,0 km/h (0 Bft) 0,00 %
28.10.2014 11:45 6,2 C 71 % 1020,2 hPa 0,0 l/m 0,7 km/h (0 Bft) O 99 15 min 0,000 mm 2,0 UV-I 801 W/m 1,3 C 6,2 C 4,0 km/h (1 Bft) 0,00 %
28.10.2014 12:00 5,8 C 71 % 1020,2 hPa 0,0 l/m 0,0 km/h (0 Bft) S 179 15 min 0,000 mm 2,0 UV-I 762 W/m 1,0 C 5,8 C 0,0 km/h (0 Bft) 0,00 %
28.10.2014 12:15 6,3 C 70 % 1019,8 hPa 0,0 l/m 0,0 km/h (0 Bft) W-SW 251 15 min 0,000 mm 2,0 UV-I 735 W/m 1,2 C 6,3 C 0,0 km/h (0 Bft) 0,00 %
28.10.2014 12:30 6,6 C 69 % 1019,6 hPa 0,0 l/m 0,0 km/h (0 Bft) O-SO 122 15 min 0,000 mm 2,0 UV-I 706 W/m 1,3 C 6,6 C 0,0 km/h (0 Bft) 0,00 %
28.10.2014 12:45 6,3 C 70 % 1019,6 hPa 0,0 l/m 0,0 km/h (0 Bft) S-SW 212 15 min 0,000 mm 2,0 UV-I 763 W/m 1,2 C 6,3 C 0,0 km/h (0 Bft) 0,00 %
28.10.2014 13:00 7,0 C 70 % 1019,2 hPa 0,0 l/m 0,0 km/h (0 Bft) W-NW 293 15 min 0,000 mm 2,0 UV-I 672 W/m 1,9 C 7,0 C 0,0 km/h (0 Bft) 0,00 %
28.10.2014 13:15 6,6 C 69 % 1019,1 hPa 0,0 l/m 0,4 km/h (0 Bft) W-SW 256 15 min 0,000 mm 2,0 UV-I 666 W/m 1,3 C 6,6 C 4,0 km/h (1 Bft) 0,00 %
28.10.2014 13:30 6,9 C 70 % 1018,8 hPa 0,0 l/m 0,0 km/h (0 Bft) S 173 15 min 0,000 mm 2,0 UV-I 604 W/m 1,8 C 6,9 C 0,0 km/h (0 Bft) 0,00 %
28.10.2014 13:45 6,9 C 69 % 1018,7 hPa 0,0 l/m 0,0 km/h (0 Bft) W-SW 253 15 min 0,000 mm 2,0 UV-I 567 W/m 1,6 C 6,9 C 0,0 km/h (0 Bft) 0,00 %
28.10.2014 14:00 7,1 C 69 % 1018,5 hPa 0,0 l/m 0,0 km/h (0 Bft) S 177 15 min 0,000 mm 2,0 UV-I 553 W/m 1,8 C 7,1 C 0,0 km/h (0 Bft) 0,00 %
28.10.2014 14:15 7,1 C 70 % 1018,4 hPa 0,0 l/m 0,0 km/h (0 Bft) S-SW 207 15 min 0,000 mm 1,0 UV-I 490 W/m 2,0 C 7,1 C 0,0 km/h (0 Bft) 0,00 %
28.10.2014 14:30 6,9 C 70 % 1018,3 hPa 0,0 l/m 0,0 km/h (0 Bft) SW 234 15 min 0,000 mm 1,0 UV-I 453 W/m 1,8 C 6,9 C 0,0 km/h (0 Bft) 0,00 %
28.10.2014 14:45 6,8 C 70 % 1018,2 hPa 0,0 l/m 0,4 km/h (0 Bft) S-SW 198 15 min 0,000 mm 1,0 UV-I 408 W/m 1,7 C 6,8 C 4,0 km/h (1 Bft) 0,00 %
28.10.2014 15:00 6,6 C 70 % 1018,1 hPa 0,0 l/m 0,0 km/h (0 Bft) W-NW 283 15 min 0,000 mm 1,0 UV-I 343 W/m 1,5 C 6,6 C 0,0 km/h (0 Bft) 0,00 %
28.10.2014 15:15 6,5 C 72 % 1017,8 hPa 0,0 l/m 0,0 km/h (0 Bft) O 94 15 min 0,000 mm 1,0 UV-I 297 W/m 1,8 C 6,5 C 0,0 km/h (0 Bft) 0,00 %
28.10.2014 15:30 6,1 C 72 % 1018,0 hPa 0,0 l/m 0,0 km/h (0 Bft) N-NO 25 15 min 0,000 mm 1,0 UV-I 233 W/m 1,4 C 6,1 C 0,0 km/h (0 Bft) 0,00 %
28.10.2014 15:45 5,7 C 73 % 1018,8 hPa 0,0 l/m 0,0 km/h (0 Bft) W-SW 255 15 min 0,000 mm 1,0 UV-I 171 W/m 1,2 C 5,7 C 0,0 km/h (0 Bft) 0,00 %
28.10.2014 16:00 5,4 C 75 % 1019,0 hPa 0,0 l/m 0,0 km/h (0 Bft) S 172 0 min 0,000 mm 1,0 UV-I 102 W/m 1,3 C 5,4 C 0,0 km/h (0 Bft) 0,00 %
28.10.2014 16:15 4,9 C 76 % 1019,0 hPa 0,0 l/m 3,2 km/h (1 Bft) W-SW 251 0 min 0,000 mm 0,0 UV-I 47 W/m 1,0 C 4,9 C 7,9 km/h (2 Bft) 0,00 %
28.10.2014 16:30 4,5 C 79 % 1019,1 hPa 0,0 l/m 0,0 km/h (0 Bft) O-NO 68 0 min 0,000 mm 0,0 UV-I 0 W/m 1,2 C 4,5 C 0,0 km/h (0 Bft) 0,00 %
28.10.2014 16:45 4,1 C 81 % 1019,3 hPa 0,0 l/m 0,0 km/h (0 Bft) S 187 0 min 0,000 mm 0,0 UV-I 0 W/m 1,1 C 4,1 C 0,0 km/h (0 Bft) 0,00 %
28.10.2014 17:00 3,9 C 81 % 1019,1 hPa 0,0 l/m 0,0 km/h (0 Bft) SW 226 0 min 0,000 mm 0,0 UV-I 0 W/m 0,9 C 3,9 C 0,0 km/h (0 Bft) 0,00 %
28.10.2014 17:15 3,3 C 83 % 1019,3 hPa 0,0 l/m 0,0 km/h (0 Bft) SW 226 0 min 0,000 mm 0,0 UV-I 0 W/m 0,7 C 3,3 C 0,0 km/h (0 Bft) 0,00 %
28.10.2014 17:30 3,1 C 84 % 1019,4 hPa 0,0 l/m 0,0 km/h (0 Bft) S-SW 193 0 min 0,000 mm 0,0 UV-I 0 W/m 0,7 C 3,1 C 0,0 km/h (0 Bft) 0,00 %
28.10.2014 17:45 3,0 C 84 % 1019,5 hPa 0,0 l/m 0,0 km/h (0 Bft) SO 136 0 min 0,000 mm 0,0 UV-I 0 W/m 0,6 C 3,0 C 0,0 km/h (0 Bft) 0,00 %
28.10.2014 18:00 2,9 C 84 % 1019,7 hPa 0,0 l/m 0,0 km/h (0 Bft) SO 134 0 min 0,000 mm 0,0 UV-I 0 W/m 0,5 C 2,9 C 0,0 km/h (0 Bft) 0,00 %
28.10.2014 18:15 2,8 C 85 % 1019,7 hPa 0,0 l/m 0,0 km/h (0 Bft) S 172 0 min 0,000 mm 0,0 UV-I 0 W/m 0,5 C 2,8 C 0,0 km/h (0 Bft) 0,00 %
28.10.2014 18:30 2,9 C 85 % 1019,4 hPa 0,0 l/m 0,0 km/h (0 Bft) S 176 0 min 0,000 mm 0,0 UV-I 0 W/m 0,6 C 2,9 C 0,0 km/h (0 Bft) 0,00 %
28.10.2014 18:45 3,3 C 85 % 1019,4 hPa 0,0 l/m 0,0 km/h (0 Bft) S 184 0 min 0,000 mm 0,0 UV-I 0 W/m 1,0 C 3,3 C 0,0 km/h (0 Bft) 0,00 %
28.10.2014 19:00 3,6 C 85 % 1019,3 hPa 0,0 l/m 0,0 km/h (0 Bft) SO 142 0 min 0,000 mm 0,0 UV-I 0 W/m 1,3 C 3,6 C 0,0 km/h (0 Bft) 0,00 %
28.10.2014 19:15 4,0 C 84 % 1019,2 hPa 0,0 l/m 0,0 km/h (0 Bft) S-SO 166 0 min 0,000 mm 0,0 UV-I 0 W/m 1,5 C 4,0 C 0,0 km/h (0 Bft) 0,00 %
28.10.2014 19:30 4,0 C 84 % 1019,2 hPa 0,0 l/m 0,0 km/h (0 Bft) S-SW 209 0 min 0,000 mm 0,0 UV-I 0 W/m 1,5 C 4,0 C 0,0 km/h (0 Bft) 0,00 %
28.10.2014 19:45 4,0 C 84 % 1019,2 hPa 0,0 l/m 0,0 km/h (0 Bft) SW 214 0 min 0,000 mm 0,0 UV-I 0 W/m 1,5 C 4,0 C 0,0 km/h (0 Bft) 0,00 %
28.10.2014 20:00 3,9 C 84 % 1019,0 hPa 0,0 l/m 0,0 km/h (0 Bft) S-SO 167 0 min 0,000 mm 0,0 UV-I 0 W/m 1,4 C 3,9 C 0,0 km/h (0 Bft) 0,00 %
28.10.2014 20:15 3,9 C 84 % 1019,0 hPa 0,0 l/m 0,0 km/h (0 Bft) S-SW 202 0 min 0,000 mm 0,0 UV-I 0 W/m 1,4 C 3,9 C 0,0 km/h (0 Bft) 0,00 %
28.10.2014 20:30 3,7 C 83 % 1019,0 hPa 0,0 l/m 0,0 km/h (0 Bft) SW 215 0 min 0,000 mm 0,0 UV-I 0 W/m 1,1 C 3,7 C 0,0 km/h (0 Bft) 0,00 %
28.10.2014 20:45 3,7 C 84 % 1019,2 hPa 0,0 l/m 0,0 km/h (0 Bft) SW 215 0 min 0,000 mm 0,0 UV-I 0 W/m 1,3 C 3,7 C 0,0 km/h (0 Bft) 0,00 %
28.10.2014 22:00 1,9 C 81 % 1019,0 hPa 0,0 l/m 0,0 km/h (0 Bft) S 179 0 min 0,000 mm 0,0 UV-I 0 W/m -1,0 C 1,9 C 0,0 km/h (0 Bft) 0,00 %
28.10.2014 22:15 1,9 C 81 % 1019,0 hPa 0,0 l/m 0,0 km/h (0 Bft) S-SW 196 0 min 0,000 mm 0,0 UV-I 0 W/m -1,0 C 1,9 C 0,0 km/h (0 Bft) 0,00 %
28.10.2014 22:30 1,8 C 81 % 1018,9 hPa 0,0 l/m 0,0 km/h (0 Bft) SW 225 0 min 0,000 mm 0,0 UV-I 0 W/m -1,1 C 1,8 C 0,0 km/h (0 Bft) 0,00 %
28.10.2014 23:15 1,8 C 82 % 1018,9 hPa 0,0 l/m 0,0 km/h (0 Bft) S-SW 205 0 min 0,000 mm 0,0 UV-I 0 W/m -0,9 C 1,8 C 0,0 km/h (0 Bft) 0,00 %
28.10.2014 23:30 1,7 C 82 % 1019,3 hPa 0,0 l/m 0,0 km/h (0 Bft) S 175 0 min 0,000 mm 0,0 UV-I 0 W/m -1,0 C 1,7 C 0,0 km/h (0 Bft) 0,00 %
28.10.2014 23:45 1,8 C 82 % 1019,3 hPa 0,0 l/m 0,0 km/h (0 Bft) SW 224 0 min 0,000 mm 0,0 UV-I 0 W/m -0,9 C 1,8 C 0,0 km/h (0 Bft) 0,00 %
_ Min-Zeit 23:30 12:30 15:15 - 03:15 - - - - - - 22:30 00:45 03:15 00:00
Minimum _ 1,7 C 69 % 1017,8 hPa - 0,0 km/h (0 Bft) - - - - - - -1,1 C 0,7 C 0,0 km/h (0 Bft) 0,00 %
_ Max-Zeit 14:00 18:15 00:00 00:00 00:45 - - 08:00 00:00 09:45 11:15 14:15 14:00 00:45 00:00
Maximum _ 7,1 C 85 % 1024,6 hPa 0,0 l/m 11,5 km/h
SO (2 Bft)
- - 15 min 0,000 mm 2,0 UV-I 828 W/m 2,0 C 7,1 C 15,8 km/h
SO (3 Bft)
0,00 %
Durchschnitt _ 4,1 C 79 % 1021,0 hPa #0,0 l/m 2,0 km/h (1 Bft) O-SO - #8:00 h #0,000 mm 1,6 UV-I 462 W/m 0,7 C 3,9 C 3,6 km/h (1 Bft) 0,00 %